Home   Weather   Modena   Past weeks

Flag for Italy Past Weather in Modena, Italy — Yesterday and Last 2 Weeks

Now
64 °F

Rain. Passing clouds.


Feels Like: 64 °F
Forecast: 60 / 76 °F
Wind: 3 mph from West

Location: Bologna / Borgo Panigale

Current Time: Oct 1, 2016 at 10:47:43 PM

Latest Report: Oct 1, 2016 at 9:50 PM


Visibility: 4 mi

Pressure: 29.98 "Hg

Humidity: 88%

Dew Point: 61 °F

Location of ModenaLocation

Past Weather in Modena — Graph

°F

Modena Temperature Yesterday

Maximum temperature yesterday: 81 °F (at 1:50 PM)
Minimum temperature yesterday: 59 °F (at 5:20 AM)
Average temperature yesterday: 70 °F

High & Low Weather Summary for the Past Weeks

 TemperatureHumidityPressure
High82 °F (Oct 1, 3:50 PM)94% (Sep 16, 9:20 PM)30.42 "Hg (Sep 16, 9:20 PM)
Low54 °F (Sep 24, 6:20 AM)31% (Sep 23, 1:50 PM)29.80 "Hg (Sep 18, 2:50 PM)
Average67 °F65%30.08 "Hg
* Reported Sep 16 9:20 PM — Oct 1 9:50 PM, Modena, Weather by CustomWeather, © 2016

Note: Actual official high and low records may vary slightly from our data, if they occured in-between our weather recording intervals... More about our weather records

Advertising

Modena Weather History for the Previous 24 Hours

Scroll right to see more
 ConditionsComfort  
Time TempWeatherWind HumidityBarometerVisibility
9:50 PM
Sat, Oct 1
64 °FRain. Passing clouds.3 mph88%29.98 "Hg4 mi
9:20 PM66 °FPassing clouds.3 mph83%29.98 "HgN/A
8:50 PM70 °FLight rain. Passing clouds.9 mph69%29.95 "HgN/A
8:20 PM73 °FPassing clouds.6 mph53%29.95 "HgN/A
7:50 PM73 °FPassing clouds.5 mph53%29.95 "HgN/A
7:20 PM75 °FPassing clouds.6 mph50%29.92 "HgN/A
6:50 PM75 °FScattered clouds.5 mph50%29.92 "HgN/A
6:20 PM75 °FScattered clouds.7 mph50%29.92 "HgN/A
5:50 PM77 °FScattered clouds.9 mph47%29.92 "HgN/A
5:20 PM77 °FScattered clouds.10 mph44%29.92 "HgN/A
4:50 PM79 °FScattered clouds.12 mph42%29.95 "HgN/A
4:20 PM79 °FScattered clouds.9 mph42%29.95 "HgN/A
3:50 PM82 °FPassing clouds.8 mph40%29.95 "HgN/A
3:20 PM81 °FPassing clouds.9 mph42%29.95 "HgN/A
2:50 PM81 °FPassing clouds.3 mph42%29.95 "HgN/A
2:20 PM79 °FPassing clouds.6 mph39%29.98 "HgN/A
1:50 PM79 °FPassing clouds.8 mph42%29.98 "HgN/A
1:20 PM79 °FPassing clouds.5 mph34%29.98 "HgN/A
12:50 PM77 °FPassing clouds.3 mph39%30.01 "HgN/A
12:20 PM77 °FPassing clouds.5 mph39%30.01 "HgN/A
11:50 AM75 °FPassing clouds.5 mph41%30.01 "HgN/A
11:20 AM75 °FSunny.2 mph44%30.04 "Hg10 mi
10:50 AM75 °FSunny.2 mph47%30.04 "Hg10 mi
10:20 AM73 °FPassing clouds.5 mph50%30.04 "HgN/A
9:50 AM70 °FSunny.7 mph57%30.04 "Hg10 mi
9:20 AM68 °FSunny.8 mph60%30.04 "Hg10 mi
8:50 AM66 °FSunny.9 mph64%30.04 "Hg10 mi
8:20 AM64 °FSunny.6 mph68%30.04 "Hg10 mi
7:50 AM61 °FSunny.5 mph72%30.04 "Hg10 mi
7:20 AM55 °FSunny.5 mph72%30.04 "Hg10 mi
6:50 AM55 °FClear.3 mph72%30.04 "Hg10 mi
6:20 AM55 °FClear.2 mph72%30.04 "Hg10 mi
5:50 AM54 °FPassing clouds.5 mph77%30.04 "HgN/A
5:20 AM55 °FPassing clouds.5 mph72%30.04 "HgN/A
4:50 AM55 °FClear.5 mph72%30.01 "Hg10 mi
4:20 AM61 °FClear.8 mph63%30.01 "Hg10 mi
3:50 AM61 °FPassing clouds.8 mph63%30.01 "HgN/A
3:20 AM61 °FClear.6 mph59%30.04 "Hg10 mi
2:50 AM61 °FClear.7 mph59%30.04 "Hg10 mi
2:20 AM61 °FClear.7 mph59%30.07 "Hg10 mi
1:50 AM61 °FClear.6 mph59%30.07 "Hg10 mi
1:20 AM63 °FClear.7 mph59%30.07 "Hg10 mi
12:50 AM63 °FClear.6 mph59%30.07 "Hg10 mi
12:20 AM64 °FPassing clouds.7 mph56%30.07 "HgN/A
11:50 PM
Fri, Sep 30
64 °FClear.8 mph60%30.07 "Hg10 mi
11:20 PM64 °FClear.8 mph60%30.09 "Hg10 mi
10:50 PM66 °FClear.6 mph60%30.09 "Hg10 mi
10:20 PM66 °FClear.7 mph60%30.09 "Hg10 mi
Weather by CustomWeather, © 2016

See weather overviewHow to use our weather pages